TimeEST,TemperatureF,Dew PointF,Humidity,Sea Level PressureIn,VisibilityMPH,Wind Direction,Wind SpeedMPH,Gust SpeedMPH,PrecipitationIn,Events,Conditions,WindDirDegrees,DateUTC
12:56 AM,44.1,34.0,68,29.82,10.0,Calm,Calm,-,N/A,,Overcast,0,2014-01-14 05:56:00
1:56 AM,46.9,35.1,63,29.79,10.0,South,4.6,-,0.00,Rain,Light Rain,170,2014-01-14 06:56:00
2:56 AM,43.0,36.0,76,29.80,10.0,East,3.5,-,0.01,,Overcast,80,2014-01-14 07:56:00
3:56 AM,46.9,37.9,71,29.78,10.0,South,8.1,18.4,0.00,,Overcast,180,2014-01-14 08:56:00
4:56 AM,45.0,37.9,76,29.77,10.0,SE,4.6,-,0.00,,Overcast,140,2014-01-14 09:56:00
5:56 AM,41.0,36.0,82,29.76,10.0,Calm,Calm,-,0.00,Rain,Light Rain,0,2014-01-14 10:56:00
6:56 AM,42.1,37.9,85,29.78,8.0,SE,3.5,-,0.03,Rain,Light Rain,130,2014-01-14 11:56:00
7:56 AM,41.0,39.0,93,29.77,7.0,ESE,3.5,-,0.04,Rain,Light Rain,120,2014-01-14 12:56:00
8:56 AM,41.0,39.0,93,29.77,7.0,Calm,Calm,-,0.06,Fog-Rain,Light Rain,0,2014-01-14 13:56:00
9:10 AM,39.2,39.2,100,29.77,6.0,Calm,Calm,-,0.00,Fog-Rain,Light Rain,0,2014-01-14 14:10:00
9:56 AM,42.1,39.9,92,29.79,6.0,Calm,Calm,-,0.02,Fog-Rain,Light Rain,0,2014-01-14 14:56:00
10:50 AM,42.8,39.2,87,29.76,1.0,Calm,Calm,-,0.01,Fog-Rain,Light Rain,0,2014-01-14 15:50:00
10:56 AM,42.1,39.9,92,29.77,1.0,Calm,Calm,-,0.01,Fog-Rain,Light Rain,0,2014-01-14 15:56:00
11:09 AM,42.8,41.0,93,29.75,3.0,Calm,Calm,-,0.00,Fog-Rain,Light Rain,0,2014-01-14 16:09:00
11:30 AM,42.8,42.8,100,29.74,2.0,Calm,Calm,-,0.00,Fog-Rain,Light Rain,0,2014-01-14 16:30:00
11:56 AM,43.0,41.0,93,29.74,2.0,NW,5.8,-,0.00,Fog-Rain,Light Rain,320,2014-01-14 16:56:00
12:56 PM,43.0,42.1,97,29.73,2.0,NNW,3.5,-,0.06,Fog-Rain,Light Rain,340,2014-01-14 17:56:00
1:24 PM,42.8,42.8,100,29.72,3.0,NW,3.5,-,0.00,Fog,Patches of Fog,310,2014-01-14 18:24:00
1:56 PM,43.0,41.0,93,29.73,3.0,East,3.5,-,0.01,Fog-Rain,Light Rain,80,2014-01-14 18:56:00
2:42 PM,42.8,39.2,87,29.70,4.0,WNW,3.5,-,0.00,Fog-Rain,Light Rain,290,2014-01-14 19:42:00
2:56 PM,41.0,39.9,96,29.72,3.0,Calm,Calm,-,0.00,Fog-Rain,Light Rain,0,2014-01-14 19:56:00
3:06 PM,42.8,41.0,93,29.71,3.0,WNW,3.5,-,0.00,Fog,Overcast,300,2014-01-14 20:06:00
3:56 PM,39.9,39.0,97,29.75,3.0,West,3.5,-,0.00,Fog,Overcast,280,2014-01-14 20:56:00
4:56 PM,37.0,36.0,96,29.76,5.0,WNW,5.8,-,0.00,Fog,Mostly Cloudy,290,2014-01-14 21:56:00
5:56 PM,37.9,37.0,97,29.80,7.0,NW,4.6,-,N/A,Fog,Patches of Fog,310,2014-01-14 22:56:00
6:46 PM,35.6,33.8,93,29.82,1.0,Calm,Calm,-,N/A,Fog,Partly Cloudy,0,2014-01-14 23:46:00
6:56 PM,35.1,34.0,96,29.83,2.0,Calm,Calm,-,N/A,Fog,Partly Cloudy,0,2014-01-14 23:56:00
7:04 PM,35.6,33.8,93,29.82,3.0,Calm,Calm,-,N/A,Fog,Partly Cloudy,0,2014-01-15 00:04:00
7:37 PM,33.8,32.0,93,29.83,1.5,Calm,Calm,-,N/A,Fog,Partly Cloudy,0,2014-01-15 00:37:00
7:49 PM,33.8,32.0,93,29.84,0.5,SE,3.5,-,N/A,Fog,Fog,130,2014-01-15 00:49:00
7:56 PM,32.0,30.9,96,29.85,0.2,Calm,Calm,-,N/A,Fog,Fog,0,2014-01-15 00:56:00
8:56 PM,32.0,30.9,96,29.88,0.1,Calm,Calm,-,N/A,Fog,Fog,0,2014-01-15 01:56:00
9:40 PM,30.2,30.2,100,29.88,0.1,Calm,Calm,-,N/A,Fog,Light Freezing Fog,0,2014-01-15 02:40:00
9:56 PM,30.0,28.0,92,29.88,0.2,Calm,Calm,-,N/A,Fog,Light Freezing Fog,0,2014-01-15 02:56:00
10:56 PM,30.0,28.9,96,29.90,0.1,Calm,Calm,-,N/A,Fog,Light Freezing Fog,0,2014-01-15 03:56:00
11:56 PM,28.9,28.0,96,29.90,0.1,Calm,Calm,-,N/A,Fog,Light Freezing Fog,0,2014-01-15 04:56:00